Lid_Strength_Index
6 6 5 3 2 2 2 2 2 2 2 5 6 7 6 6 5 5 5 5 5 5 6 6 6 6 7 7 7 8 7 8 6 7 8 8 8 9 9 9 9 8 7
7 6 6 7 4 3 2 2 2 3 3 4 5 6 6 7 7 7 6 6 6 6 6 7 7 7 7 7 7 8 9 9 7 7 8 10 9 9 9 10 9 10 9
8 7 6 6 6 4 3 2 2 3 3 4 5 8 9 9 9 9 9 7 7 6 7 7 7 7 7 7 8 8 9 10 10 7 8 10 11 11 10 11 11 11 11
8 7 6 4 4 4 3 2 2 3 4 5 6 7 8 9 9 8 8 9 7 7 6 7 7 7 7 8 8 8 8 9 10 10 9 10 9 12 13 12 12 12 11
8 8 7 6 4 5 4 3 3 4 5 6 7 7 7 8 8 8 8 8 9 8 7 8 8 9 9 10 10 10 10 10 10 11 11 12 12 11 13 15 14 13 12
8 7 6 6 5 6 6 6 6 5 6 6 6 6 7 8 8 8 8 8 8 8 8 9 10 10 10 11 11 11 11 11 11 11 11 11 12 13 13 14 14 14 13
8 8 7 7 6 5 5 5 5 6 5 5 6 6 8 7 8 8 7 9 8 8 9 10 10 10 10 10 11 11 12 12 12 12 12 12 13 13 13 12 14 15 13
8 8 7 6 6 6 5 7 6 5 5 5 5 5 7 7 7 7 7 7 8 8 9 10 9 10 10 11 12 11 11 12 13 13 13 12 12 12 13 14 14 15 15
8 8 7 6 6 6 6 6 6 6 6 5 5 5 6 6 6 6 7 7 8 9 9 9 11 11 11 11 11 12 12 12 12 13 12 12 13 12 12 13 13 13 16
7 7 7 6 6 7 6 7 6 6 5 6 6 6 5 5 6 7 7 8 9 10 10 11 10 11 11 11 11 12 12 12 12 12 13 13 13 13 12 12 13 12 14
6 6 6 5 5 6 7 8 8 7 7 7 6 6 7 7 7 8 8 9 9 10 10 10 10 11 11 11 11 11 12 12 13 12 12 12 12 13 12 12 13 13 14
6 5 4 4 5 6 7 6 7 7 7 7 7 7 7 7 8 8 9 9 10 9 10 10 11 10 11 11 11 11 12 12 13 12 12 13 12 14 13 13 14 14 14
6 5 5 4 4 4 5 6 7 7 8 7 8 8 8 9 8 9 10 10 10 10 10 11 11 11 11 11 11 12 12 12 13 13 13 13 13 14 14 14 15 15 14
5 5 5 5 4 5 5 6 7 7 8 8 8 8 8 9 10 10 10 10 11 11 11 11 11 11 12 12 12 12 13 13 13 14 14 14 15 15 15 15 16 16 16
5 5 5 5 4 4 5 6 7 7 8 8 9 9 9 9 10 10 10 10 10 11 12 12 12 12 11 11 12 13 13 14 15 14 15 15 14 14 15 16 16 17 17
5 4 4 4 4 5 5 6 7 7 7 8 9 9 9 10 10 11 11 11 11 11 11 12 12 12 11 11 11 12 13 14 15 16 15 14 14 14 14 15 15 16 16
5 5 5 4 4 4 5 6 6 7 8 8 8 9 9 10 10 11 11 11 11 11 12 12 13 13 12 11 11 11 13 14 15 15 15 15 15 15 15 15 14 14 14
5 5 5 4 4 4 4 5 6 6 7 7 8 8 9 9 10 10 10 11 11 11 12 13 13 13 12 12 11 11 13 14 14 15 15 16 17 16 15 15 16 15 15
5 5 4 3 3 3 4 5 6 6 6 7 8 8 8 9 9 10 10 10 11 11 13 13 13 14 14 13 12 13 14 15 15 15 15 16 16 15 15 15 16 17 17
4 4 4 3 3 4 5 6 7 7 6 7 7 8 8 8 9 9 10 10 10 12 12 13 14 13 14 13 12 13 15 16 16 15 15 15 16 16 16 17 16 17 18
4 4 4 4 5 5 5 7 8 7 6 6 7 8 8 8 8 9 9 10 10 12 13 13 14 13 13 13 12 12 14 16 16 16 16 16 16 16 16 16 17 18 18
5 4 6 6 6 5 5 7 7 6 7 7 7 8 8 8 8 9 9 10 11 12 12 14 14 14 13 13 12 12 13 14 16 17 17 17 16 16 17 17 17 17 18
6 5 6 6 6 6 7 5 7 7 7 7 7 8 8 8 8 9 10 10 11 12 13 14 15 16 14 14 11 12 12 13 16 17 17 15 16 16 17 16 16 19 20
5 5 6 6 7 7 7 6 6 6 7 7 8 8 9 9 9 9 9 10 11 13 14 14 16 16 16 16 17 15 14 14 16 16 16 18 18 21 23 22 19 21 24
5 5 6 7 7 8 8 7 6 6 7 8 8 9 9 9 10 9 10 10 11 11 13 13 14 16 17 16 16 16 17 18 17 19 20 22 23 24 26 25 26 26 27
5 5 6 7 8 8 7 7 7 7 8 9 9 10 10 10 10 11 11 10 11 10 10 11 13 13 13 13 13 13 14 14 15 22 23 24 25 24 25 26 26 28 26